Weather in Kosykh

Ukraine / Zaporizhia Region     46°27′37″N   35°16′41″E
temp.,
°C
wind,
m/s
gust,
m/s
humid.,
%
clouds,
%
prec.,
mm/h
press.,
hPa
HPBL,
m
3 march, wed
wed323:00+4w9148064 0.0 1021636
02:00+3nw6107678 0.1 1020557
05:00+3nw8128197 0.1 1021911
08:00+3nnw8127269 0.1 1023993
11:00+6nnw79610 0.0 10241016
14:00+8nnw79500 0.0 10251132
17:00+6nnw58560 0.0 1025397
20:00+4nw33670 0.0 102758
4 march, thu
thu423:00+3nw22700 0.0 102643
02:00+2w23710 0.0 102657
05:00+2wsw35780 0.0 1025121
08:00+4sw58720 0.0 1024319
11:00+7sw79640 0.0 1022831
14:00+8sw710600 0.0 1020885
17:00+8sw510680 0.0 1017450
20:00+6sw8137427 0.0 1017477
5 march, fri
fri523:00+5sw814819 0.0 1016512
02:00+4sw714844 0.0 1015516
05:00+4sw613901 0.0 1015434
08:00+5sw7118642 0.0 1014438
11:00+7ssw797247 0.0 1013508
14:00+9ssw7116535 0.0 1011676
17:00+10sw712654 0.0 1010403
20:00+8sw7128144 0.0 1011375
6 march, sat
sat623:00+6wsw4992100 0.0 1012276
02:00+5wnw469287 0.0 1013129
05:00+5n479089 0.0 1014348
08:00+3n7108299 0.1 1016626
11:00+4n7862100 0.0 1018926
14:00+5n7942100 0.0 10191238
17:00+4n7943100 0.0 10201400
20:00+2nnw81146100 0.0 10241112
7 march, sun
sun723:000nnw6104933 0.0 1025701
02:00−1nw595317 0.0 1026596
05:00−1wnw46550 0.0 1026324
08:000w57450 0.0 1026393
11:00+4wsw68360 0.0 10261779
14:00+5wsw810440 0.0 10231875
17:00+4w6104440 0.0 10211256
20:00+2wsw8125920 0.0 1021580